Vorticity
5 6 9 8 9 6 5 5 4 3 4 5 6 6 6 6 6 5 8 3 2 2 2 4 5 6 7 9 10 10 10 9 9 8 7 6 2 3 4 5 6 6 5
4 5 7 7 6 6 6 5 5 4 4 4 4 4 5 5 5 5 4 3 4 4 4 4 4 6 8 8 7 10 9 9 8 9 7 6 5 5 5 6 6 6 6
8 5 5 7 3 5 5 5 6 5 4 4 4 4 4 5 5 6 5 4 3 3 3 5 6 6 7 6 6 10 9 8 7 7 7 7 6 5 11 12 5 6 6
6 3 4 5 4 3 4 4 4 5 4 4 4 5 4 4 5 3 4 5 5 7 9 6 6 7 7 7 6 8 11 9 8 7 7 7 8 3 6 -0 9 7 6
10 7 5 5 6 5 3 3 4 3 5 5 4 4 5 6 5 4 4 5 5 4 2 3 5 10 6 8 8 8 10 10 7 7 6 6 10 4 -3 7 13 8 5
-1 2 2 4 7 5 5 3 3 5 4 5 5 5 5 6 6 5 3 3 4 3 4 6 8 3 2 7 8 7 10 11 8 7 7 7 3 2 4 2 2 3 4
6 1 4 4 3 2 2 2 2 2 2 2 1 2 3 5 4 4 4 6 3 6 6 8 5 3 2 9 6 8 10 10 10 7 8 7 5 1 3 -0 1 8 8
9 8 8 6 6 5 4 3 3 3 2 2 3 3 3 3 4 5 5 5 5 6 5 7 7 5 6 7 8 8 7 11 12 8 8 9 10 2 6 10 9 10 14
10 12 12 11 12 12 12 11 10 10 7 5 5 4 3 4 3 2 3 7 6 6 5 6 4 3 6 5 6 8 8 10 12 10 8 7 4 3 3 5 7 1 3
9 9 8 7 7 6 7 8 8 8 12 13 11 8 6 5 3 1 3 3 6 7 4 6 4 5 6 4 4 4 7 9 13 11 8 4 3 6 3 3 3 4 3
4 4 4 5 6 8 10 9 10 13 12 10 11 11 11 10 10 12 8 2 2 4 8 6 6 4 5 4 4 5 6 7 10 12 8 -2 -1 22 7 10 4 -1 -0
4 4 4 5 5 6 6 8 7 5 6 7 7 8 9 10 10 9 8 10 3 0 3 6 7 6 4 5 4 5 3 5 7 9 15 14 1 8 2 1 -5 5 -0
4 4 3 4 4 5 6 7 6 5 8 9 9 9 8 7 7 9 11 10 9 10 0 3 4 4 5 5 4 4 3 5 6 8 10 13 8 -1 -2 -2 -5 5 7
3 4 4 3 3 3 4 5 7 6 6 8 8 8 9 9 9 8 7 8 11 10 9 1 2 4 3 4 5 4 4 3 5 6 9 11 13 2 -2 1 5 2 3
2 1 4 4 3 3 3 3 3 4 5 6 6 6 8 8 9 10 9 8 7 9 12 9 4 1 4 3 4 4 4 5 3 3 4 8 12 16 2 7 -7 15 10
4 5 4 4 6 4 3 3 3 3 3 4 5 5 5 6 7 7 8 8 9 9 8 11 8 10 3 2 5 4 4 5 5 2 2 3 3 5 11 10 8 4 -2
7 6 6 4 6 5 4 4 5 5 4 3 3 4 4 4 4 8 9 8 7 8 9 9 10 11 12 7 2 3 5 2 4 5 4 1 5 2 2 3 6 8 9
7 8 7 8 8 7 6 5 5 5 5 5 3 2 2 2 3 4 5 7 9 8 6 6 10 10 9 12 18 5 1 3 5 5 5 3 3 -1 1 6 3 4 7
4 3 4 4 5 7 7 5 4 4 6 6 6 4 3 2 1 2 2 3 5 6 9 9 6 7 8 7 13 9 9 6 5 4 6 6 6 4 0 7 5 -7 2
6 5 5 6 6 4 4 5 5 4 4 6 7 7 4 4 5 3 2 2 3 4 6 7 8 8 9 8 8 11 7 3 7 6 4 4 5 6 6 5 9 7 4
10 11 10 9 9 10 8 7 5 3 5 5 5 6 7 6 3 4 5 4 2 3 4 4 6 7 9 10 10 8 8 11 9 4 4 6 7 4 5 6 7 7 8
14 16 14 5 8 16 17 14 9 6 4 5 5 4 4 5 7 8 6 5 5 3 2 5 5 5 5 7 9 10 11 10 7 8 11 8 4 6 8 6 4 5 8
7 5 5 6 10 12 9 12 15 15 10 3 3 5 4 3 3 4 7 8 5 6 5 3 5 5 4 5 5 7 9 9 12 11 9 8 9 9 6 4 3 5 6
7 8 8 10 10 11 11 9 9 7 10 13 13 11 4 5 4 4 4 4 8 7 6 7 4 4 4 4 4 5 6 8 8 10 11 11 10 9 8 9 9 6 2
2 2 3 5 8 8 7 4 3 3 7 12 9 12 13 8 5 5 4 5 6 7 10 7 7 5 4 4 5 6 5 5 6 6 8 10 11 12 13 11 9 8 8
11 9 9 6 6 5 5 7 7 6 7 4 4 11 13 6 9 7 12 14 8 9 7 7 10 6 6 5 5 5 6 6 7 8 8 9 8 9 10 10 11 11 11
Height
3179 3179 3178 3178 3179 3180 3181 3182 3182 3183 3184 3184 3184 3185 3185 3186 3186 3187 3187 3187 3187 3187 3188 3188 3187 3187 3187 3186 3185 3184 3184 3184 3185 3185 3186 3188 3189 3190 3191 3193 3193 3194 3195
3179 3179 3180 3180 3181 3181 3182 3182 3183 3183 3184 3185 3185 3185 3185 3186 3186 3187 3187 3187 3188 3188 3188 3188 3188 3187 3186 3187 3186 3185 3184 3185 3186 3187 3188 3189 3190 3191 3192 3193 3194 3195 3196
3180 3180 3181 3181 3181 3182 3182 3183 3184 3184 3185 3185 3185 3186 3186 3186 3187 3187 3187 3188 3188 3188 3188 3188 3188 3187 3186 3185 3185 3185 3185 3185 3186 3187 3189 3189 3191 3192 3193 3193 3195 3196 3197
3180 3181 3181 3182 3183 3183 3184 3184 3185 3185 3185 3185 3185 3185 3185 3186 3187 3187 3187 3187 3187 3187 3187 3187 3187 3187 3187 3186 3185 3185 3185 3186 3187 3188 3189 3190 3192 3194 3195 3195 3195 3196 3197
3180 3181 3181 3182 3183 3182 3184 3185 3185 3185 3186 3185 3185 3185 3185 3186 3186 3187 3187 3188 3187 3187 3186 3187 3187 3187 3186 3186 3186 3186 3185 3185 3186 3188 3189 3191 3192 3195 3196 3196 3196 3197 3198
3180 3180 3181 3182 3183 3183 3184 3184 3184 3184 3184 3184 3185 3185 3185 3185 3186 3186 3186 3187 3187 3187 3186 3186 3186 3187 3186 3186 3186 3186 3185 3185 3186 3188 3189 3191 3193 3195 3196 3196 3197 3198 3199
3178 3179 3179 3181 3181 3182 3182 3182 3182 3182 3183 3183 3184 3184 3184 3184 3185 3184 3185 3185 3185 3185 3185 3184 3185 3185 3186 3186 3186 3186 3186 3185 3186 3187 3189 3191 3193 3194 3196 3197 3198 3198 3199
3177 3177 3177 3178 3178 3179 3179 3180 3180 3181 3181 3181 3181 3182 3182 3183 3183 3183 3183 3183 3184 3184 3184 3184 3184 3184 3185 3186 3185 3185 3185 3185 3185 3186 3188 3190 3192 3194 3196 3197 3198 3199 3199
3175 3175 3176 3176 3176 3177 3177 3177 3177 3177 3177 3178 3178 3179 3179 3180 3180 3181 3181 3181 3181 3182 3182 3182 3182 3183 3184 3185 3185 3184 3184 3185 3185 3186 3187 3189 3191 3193 3194 3195 3197 3199 3200
3173 3173 3173 3174 3174 3174 3175 3175 3175 3175 3174 3175 3175 3175 3176 3177 3177 3178 3178 3179 3179 3180 3181 3181 3181 3182 3182 3184 3184 3183 3184 3184 3185 3185 3187 3188 3190 3192 3192 3194 3196 3198 3199
3169 3169 3168 3168 3168 3169 3170 3171 3171 3172 3173 3172 3172 3172 3173 3173 3173 3174 3175 3176 3176 3177 3178 3178 3179 3180 3180 3182 3183 3182 3182 3183 3183 3185 3186 3188 3189 3190 3192 3193 3194 3195 3197
3167 3167 3167 3166 3165 3165 3165 3166 3167 3168 3169 3169 3169 3169 3170 3170 3170 3170 3171 3172 3173 3174 3175 3175 3176 3177 3178 3179 3180 3181 3181 3182 3182 3183 3185 3187 3188 3189 3190 3192 3194 3194 3196
3165 3165 3165 3165 3165 3164 3164 3162 3162 3163 3164 3165 3166 3166 3166 3166 3166 3167 3167 3168 3169 3170 3172 3172 3173 3174 3175 3176 3177 3178 3179 3180 3181 3181 3183 3184 3186 3187 3187 3189 3191 3192 3193
3164 3163 3162 3162 3163 3163 3162 3161 3161 3160 3158 3158 3160 3161 3162 3163 3163 3162 3163 3163 3164 3165 3166 3167 3169 3170 3171 3172 3174 3175 3176 3177 3179 3180 3181 3182 3183 3185 3185 3187 3188 3190 3190
3162 3162 3161 3161 3160 3160 3160 3159 3158 3158 3158 3159 3156 3155 3156 3157 3158 3158 3159 3159 3159 3160 3161 3163 3164 3165 3167 3168 3169 3171 3173 3174 3175 3177 3178 3180 3181 3182 3183 3184 3185 3186 3187
3158 3158 3157 3156 3157 3157 3156 3155 3155 3155 3154 3154 3154 3154 3153 3151 3151 3152 3153 3154 3154 3155 3156 3157 3158 3160 3161 3162 3164 3166 3168 3170 3172 3173 3175 3176 3177 3178 3180 3180 3181 3182 3183
3153 3153 3152 3152 3151 3151 3151 3151 3151 3150 3150 3149 3149 3149 3149 3149 3147 3146 3147 3148 3148 3148 3150 3152 3153 3154 3155 3156 3159 3160 3162 3164 3166 3168 3170 3172 3173 3174 3175 3176 3177 3178 3179
3149 3148 3147 3146 3145 3145 3145 3145 3145 3145 3144 3144 3143 3142 3141 3142 3142 3142 3141 3141 3141 3143 3144 3145 3146 3148 3150 3150 3151 3153 3154 3156 3159 3161 3163 3165 3167 3169 3171 3172 3173 3174 3174
3140 3140 3140 3139 3139 3138 3138 3138 3138 3138 3139 3138 3137 3136 3136 3136 3135 3136 3136 3136 3136 3137 3137 3138 3140 3141 3143 3144 3145 3146 3147 3149 3152 3154 3156 3158 3160 3162 3164 3167 3169 3168 3171
3132 3131 3130 3130 3130 3131 3131 3130 3130 3130 3130 3130 3130 3129 3129 3129 3130 3130 3130 3131 3130 3131 3132 3133 3132 3133 3136 3138 3138 3139 3140 3142 3144 3146 3149 3151 3154 3156 3158 3160 3162 3164 3165
3123 3122 3121 3120 3120 3121 3121 3121 3122 3121 3121 3121 3120 3120 3121 3122 3122 3123 3124 3124 3124 3124 3124 3126 3127 3128 3128 3130 3129 3132 3133 3135 3136 3138 3141 3144 3146 3149 3151 3153 3155 3157 3158
3114 3113 3113 3112 3111 3110 3110 3110 3111 3112 3111 3111 3111 3111 3111 3112 3113 3114 3115 3117 3117 3117 3117 3117 3118 3119 3121 3123 3122 3124 3125 3128 3128 3130 3133 3135 3139 3141 3143 3145 3146 3149 3152
3107 3106 3104 3104 3103 3102 3101 3100 3100 3101 3101 3101 3100 3101 3101 3100 3102 3103 3105 3106 3107 3107 3108 3109 3110 3111 3113 3114 3115 3116 3116 3118 3122 3123 3124 3126 3129 3131 3134 3137 3139 3141 3142
3099 3098 3095 3094 3093 3092 3091 3090 3088 3087 3088 3089 3089 3089 3089 3089 3089 3089 3092 3093 3095 3096 3097 3099 3100 3101 3102 3104 3106 3107 3109 3111 3112 3114 3116 3118 3120 3122 3125 3127 3129 3132 3134
3092 3090 3088 3086 3084 3082 3081 3079 3078 3077 3075 3074 3074 3075 3075 3077 3076 3077 3077 3079 3081 3083 3084 3086 3088 3089 3091 3095 3096 3098 3099 3100 3103 3104 3106 3110 3111 3114 3115 3117 3119 3121 3124
3083 3081 3079 3077 3075 3073 3071 3069 3066 3064 3062 3061 3061 3059 3060 3061 3062 3063 3063 3063 3066 3069 3070 3072 3074 3076 3079 3081 3085 3087 3089 3092 3094 3095 3097 3101 3102 3105 3106 3108 3110 3112 3114